Погода в Сухиничи

Погода в Сухиничи : погода сейчас, прогноз погоды и архив. Всё, что Вы хотите узнать о погоде в Сухиничи!

Хотите узнать прогноз погоды в Сухиничи? Тогда Вам сюда: Погода в Сухиничи

Поиск расширенной информации на нашем сайте:

Другие новости

Новости СМИ2

Главная страница сайта

Новости сайта

03.07.2017

Напоминаем, что на нашем специализированном сайте Метеоцентр.Азия вы можете получить высокодетализированные автоматические прогнозы погоды по пунктам России, СНГ и мира в авиационном формате (включающие направление и скорость ветра, видимость, явления погоды, количество и форму облачности, нижнюю и верхнюю границу облачности).


Погода в Сухиничи - сегодня

Время (UTC), дата Ветер
(°,м/с) 
Видим.   Явления Облачность Т
(°С)
Тd
(°С)
f(%) Тe
(°С)
Pmin
(гПа)
dP
(гПа)
Po
(мм)
O2
(г/м3)
Тmin Tmax R s Состояние
почвы
06 18.02.18 170 (Ю) 1800 м  слаб. снег  10/10 2000 м 
[Ns]
-3.8 -4.2 97 -3  1019.1  -0.1  742  304  -4.3    0.9  31  равномерный
сухой снег
100% 
09 18.02.18 180 (Ю) 7000 м  дымка{снег}  10/10 2000 м 
[Ns]
-1.8 -2.7 94 -3  1018.4  -0.6  741  301           
21 18.02.18 250 (З) 4200 м  слаб. снег{ливн. осадки}  10/10 300 м 
[Frnb|Ns]
-3.3 -3.8 96 -3  1017.6  -0.5  741  302           
06 19.02.18 280 (З) 8000 м  дымка{ливн. осадки}  9/9 2000 м средняя 
[Ac As]
-3 -4 93 -4  1016.9  0.3  740  302  -4.6    0.9  31  равномерный
сухой снег
100% 
09 19.02.18 270 (З) 10 км  слаб. снег{ливн. осадки}  10/10 2000 м 
[Ns]
-2.9 -4.2 91 -5  1017.8  0.8  741  302           
21 19.02.18 280 (З) 10 км  в посл. час снег  10/10 2000 м 
[Ns]
-6.2 -7.3 92 -6  1020.1  0.1  742  307           
06 20.02.18 260 (З) 10 км  в посл. час снег  10/0 верхняя 
[Cs]
-10 -11.1 92 -12  1021.6  0.3  743  312  -11.5    0.9  41  равномерный
сухой снег
100% 
09 20.02.18 280 (З) 22000 м    8/8 600 м 
[Sc]
-5.5 -8.7 78 -7  1021.6  0.4  743  307           
12 20.02.18 280 (З) 25000 м    8/8 1000 м 
[Sc]
-4.9 -8.9 74 -7  1021.4  0.1  743  306           
15 20.02.18 280 (З) 20000 м    3/0 верхняя 
[Ci fib]
-8.6 -10.8 84 -10  1022.4  0.5  744  310           
21 20.02.18 260 (З) 7000 м  дымка  ясно 
-12.6 -13.3 94 -13  1023.7  0.1  744  316           
00 21.02.18 270 (З) 7000 м  дымка  ясно 
-13.9 -14.9 92 -14  1024.8  0.9  745  318           
03 21.02.18 250 (З) 12000 м    ясно 
-16.2 -17.6 89 -16  1025.5  0.5  745  321  -16.2         
09 21.02.18 260 (З) 20000 м    ясно 
-10 -12.3 83 -10  1026.4  0.8  746  313           
12 21.02.18 270 (З) 28000 м    6/0 верхняя 
[Ci]
-7.5 -12.6 67 -7  1026.1  746  310           
15 21.02.18 110 (В) 20000 м    1/0 верхняя 
[Ci fib]
-11.6 -13.9 83 -11  1026.2  -0.4  746  315           
21 21.02.18 тихо ()   10 км    ясно 
-15.3 -16.2 93 -15  1028.3  0.8  747  320           
00 22.02.18 тихо ()   12000 м    8/8 2000 м средняя 
[Ac As]
-17.4 -18.9 88 -17  1029.2  0.6  748  323           
09 22.02.18 040 (СВ) 26000 м    9/9 600 м 
[Sc]
-13.1 -16.6 75 -13  1030.2  0.7  749  318           
12 22.02.18 100 (В) 40000 м    6/6 600 м 
[Sc]
-9.5 -17 54 -9  1029.6  0.1  749  314           
15 22.02.18 тихо ()   30000 м    ясно 
-12.6 -17.5 67 -13  1029.4  -0.6  748  318           
21 22.02.18 тихо ()   13000 м    9/9 600 м 
[Sc]
-18.1 -19.5 89 -18  1030.8  0.2  749  325           
00 23.02.18 260 (З) 11000 м    6/6 2000 м средняя 
[Ac trans]
-18.1 -19.3 90 -18  1030.6  -0.2  749  325           
06 23.02.18 тихо ()   18000 м    9/9 2000 м средняя 
[Ac As]
-15 -17.5 81 -15  1029.8  749  321  -19      37  равномерный
сухой снег
100% 
09 23.02.18 тихо ()   40000 м    3/3 2000 м средняя 
[Ac trans]
-8.7 -17.1 51 -9  1029  0.1  748  313           
Время (UTC), дата Ветер
(°,м/с) 
Видим.   Явления Облачность Т
(°С)
Тd
(°С)
f(%) Тe
(°С)
Pmin
(гПа)
dP
(гПа)
Po
(мм)
O2
(г/м3)
Тmin Tmax R s Состояние
почвы

Для получения пояснительной информации подведите курсор к названию столбца.

ПОГОДА в Сухиничи - архив

Всё, что Вы хотите узнать о погоде в Сухиничи - удобно и подробно!

Выберите нужную дату (начиная с 1 января 2015* года) и нажмите кнопку "Найти".
Будут отображены архивные сводки погоды по пункту Сухиничи, начиная с указанной даты.


Отображать данные в формате CSV (для использования в таблицах Excel)


Внимание! Наш архив погоды предназначен исключительно для личного некоммерческого использования в познавательных целях. Если Вам необходимы официальные справки о состоянии погоды (для производственных, юридических, коммерческих и т.п. целей), обращайтесь в органы Росгидромета.

*Примечание: данная дата относится к архиву по метеостанциям СССР (Россия, СНГ, Балтия).
Архив по метеостанциям Зарубежной Европы и Азии (кроме Китая) хранится 10 дней, по другим регионам земного шара (Китай, Африка, Америка, Австралия, Океания) - 1 день.

Сухиничи - район местоположения метеостанции


Название, широта, долгота, высота метеостанции:
Сухиничи 54.1°ш. 35.3°д. 238 м над ур. моря [Российская Федерация]

Дополнительная информация

В oтличие oт бoльшинства пoгoдных сайтoв мы публикуем пoдрoбную метеoинфoрмацию в детальнoм прoфессиoнальнoм фoрмате.

Характеристики температуры и влажнoсти вoздуха измеряются на высoте 2 м в тени вдали oт зданий и деревьев.
Скoрoсть ветра измеряется на высoте 10 м (на урoвне рoста челoвека скoрoсть ветра ниже в 1.5-2 раза). Если метеoстанция нахoдится в гoрoде или в лесу, тo скoрoсть ветра занижена на 2-4 м/с пo сравнению с oткрытым местoм. Скoрoсть ветра над акватoриями крупных рек и oзёр, а также на вершинах хoлмoв на 2-5 м/с выше, чем в oбычных услoвиях.
Атмoсфернoе давление в разных тoчках местнoсти мoжет значительнo oтличаться oт давления на метеoстанции, в зависимoсти oт услoвий рельефа (при пoдъёме на 10 м давление пoнижается примернo на 1 мм рт.ст.).